Find Starlink 31220

NORAD ID: 59039 Int'l Des: 2024-038 Owner: SPXS Country: US Constellation: starlink operational
LEOCIRCULAR

現在のビュー

3D地球を読み込み中...

About Starlink 31220

Starlink 31220 (NORAD 59039) is a starlink constellation satellite (v2 mini) launched Feb 25, 2024 by SPXS of US. It operates in LEO, CIRCULAR orbit with a mass of 730.00 kg.

次回通過

Passes for default location (London). Set your location on the main map for personalized predictions.

高度履歴

Loading altitude history...

軌道要素

1 59039U 24038S 26265.27451050 .00004122 00000-0 15935-3 0 9993
2 59039 43.0016 356.7771 0000936 288.7650 71.3101 15.27552575144828
Epoch: Sep 22, 2026 • Age: 11 hours

現在のステータス

高度 484.0 km
遠地点 / 近地点 N/A
速度 7.62 km/s
衛星直下点 -8.55°S, 80.61°E
打ち上げ日 Feb 25, 2024
運用期間 2.5 years
タイプ internet

技術仕様

分類 Payload
質量 730.00 kg
乾燥質量 700.00 kg
長さ 0.30 m
スパン 29.00 m
形状 ? Box + pan
製造者 SPXS
バスタイプ Starlink V2M
フェーズステータス In Orbit
所有者/国 SPXS/US

Most Searched